Milford, UT

8:24 PM MST on November 11, 2019 (GMT -0700)
Milford Municipal

Weather History for KMLF - October, 2019

Change the Weather History Date:

Wednesday, October 23, 2019

  Actual Average Record
Temperature  
Mean Temperature 46 °F -  
Max Temperature 64 °F 60 °F 82 °F (2003)
Min Temperature 27 °F 29 °F 18 °F (1996)
Degree Days  
Heating Degree Days 20    
Moisture  
Dew Point 17 °F    
Average Humidity 29    
Maximum Humidity 66    
Minimum Humidity 18    
Precipitation  
Precipitation 0.00 in - - ()
Sea Level Pressure  
Sea Level Pressure 30.18 in    
Wind  
Wind Speed 10 mph ()    
Max Wind Speed 17 mph    
Max Gust Speed 21 mph    
Visibility 10.0 miles    
Events      
Averages and records for this station are not official NWS values.
T = Trace of Precipitation, MM = Missing Value Source: Averaged Metar Reports

Daily Weather History Graph

Daily Weather History Graph

Search for Another Location

Airport or City:

Astronomy

Oct. 23, 2019 Rise Set
Actual Time 7:48 AM MDT 6:43 PM MDT
Civil Twilight 7:21 AM MDT 7:10 PM MDT
Nautical Twilight 6:50 AM MDT 7:41 PM MDT
Astronomical Twilight 6:20 AM MDT 8:11 PM MDT
Moon 2:17 AM MDT (10/23) 4:31 PM MDT (10/23)
Length of Visible Light 11h 48m
Length of Day
10h 54m
Waning Crescent, 26% of the Moon is Illuminated
Oct 23
Waning Crescent
Oct 27
New
Nov 4
First Quarter
Nov 12
Full
Nov 19
Last Quarter

Hourly Weather History & Observations

Time (MDT) Temp. Windchill Dew Point Humidity Pressure Visibility Wind Dir Wind Speed Gust Speed Precip Events Conditions
12:52 AM 39.0 °F 34.8 °F 21.9 °F 50% 30.15 in 10.0 mi NW 5.8 mph - N/A   Clear
1:52 AM 32.0 °F 28.7 °F 18.0 °F 56% 30.16 in 10.0 mi SSE 3.5 mph - N/A   Clear
2:52 AM 33.1 °F 27.7 °F 19.0 °F 56% 30.16 in 10.0 mi NNW 5.8 mph - N/A   Clear
3:52 AM 30.0 °F 26.5 °F 17.1 °F 59% 30.16 in 10.0 mi SW 3.5 mph - N/A   Clear
4:52 AM 30.0 °F 24.1 °F 18.0 °F 61% 30.15 in 10.0 mi South 5.8 mph - N/A   Clear
5:52 AM 27.0 °F 20.5 °F 17.1 °F 66% 30.18 in 10.0 mi SSW 5.8 mph - N/A   Clear
6:52 AM 28.9 °F 22.8 °F 18.0 °F 64% 30.20 in 10.0 mi SW 5.8 mph - N/A   Clear
7:52 AM 27.0 °F 19.5 °F 16.0 °F 63% 30.21 in 10.0 mi SSW 6.9 mph - N/A   Clear
8:52 AM 32.0 °F 27.5 °F 18.0 °F 56% 30.22 in 10.0 mi South 4.6 mph - N/A   Clear
9:52 AM 45.0 °F - 21.9 °F 40% 30.19 in 10.0 mi Calm Calm - N/A   Clear
10:52 AM 54.0 °F - 25.0 °F 33% 30.19 in 10.0 mi North 4.6 mph - N/A   Clear
11:52 AM 59.0 °F - 27.0 °F 29% 30.15 in 10.0 mi NNE 9.2 mph - N/A   Clear
12:52 PM 62.1 °F - 28.0 °F 28% 30.15 in 10.0 mi North 13.8 mph - N/A   Clear
1:52 PM 64.9 °F - 26.1 °F 23% 30.14 in 10.0 mi NNE 16.1 mph 20.7 mph N/A   Clear
2:52 PM 64.9 °F - 23.0 °F 20% 30.12 in 10.0 mi NNE 12.7 mph - N/A   Clear
3:52 PM 64.9 °F - 24.1 °F 21% 30.10 in 10.0 mi NNE 9.2 mph 16.1 mph N/A   Clear
4:52 PM 64.0 °F - 23.0 °F 21% 30.10 in 10.0 mi NE 12.7 mph 20.7 mph N/A   Clear
4:59 PM 64.0 °F - 21.9 °F 20% 30.16 in 10.0 mi NE 11.5 mph - N/A   Clear
5:44 PM 62.1 °F - 19.0 °F 19% 30.16 in 10.0 mi NE 12.7 mph - N/A   Clear
5:46 PM 62.1 °F - 19.0 °F 19% 30.16 in 10.0 mi NNE 11.5 mph - N/A   Clear
5:52 PM 62.1 °F - 18.0 °F 18% 30.12 in 10.0 mi NNE 10.4 mph - N/A   Clear
6:44 PM 55.9 °F - 19.9 °F 25% 30.16 in 10.0 mi NNE 12.7 mph - N/A   Clear
6:46 PM 55.9 °F - 19.9 °F 25% 30.16 in 10.0 mi NNE 12.7 mph - N/A   Clear
6:48 PM 55.4 °F - 19.4 °F 25% 30.16 in 10.0 mi NNE 13.8 mph - N/A   Clear
6:50 PM 55.4 °F - 19.4 °F 25% 30.16 in 10.0 mi NNE 12.7 mph - N/A   Clear
6:52 PM 55.0 °F - 19.9 °F 25% 30.13 in 10.0 mi NNE 13.8 mph - N/A   Clear
6:59 PM 55.0 °F - 19.9 °F 25% 30.16 in 10.0 mi NNE 13.8 mph - N/A   Clear
7:01 PM 55.0 °F - 19.0 °F 24% 30.16 in 10.0 mi NNE 13.8 mph - N/A   Clear
7:03 PM 55.0 °F - 19.0 °F 24% 30.16 in 10.0 mi North 15.0 mph - N/A   Clear
7:05 PM 54.0 °F - 19.0 °F 25% 30.16 in 10.0 mi North 15.0 mph - N/A   Clear
7:14 PM 54.0 °F - 16.0 °F 22% 30.16 in 10.0 mi NNE 16.1 mph - N/A   Clear
7:16 PM 54.0 °F - 16.0 °F 22% 30.16 in 10.0 mi NNE 16.1 mph - N/A   Clear
7:18 PM 54.0 °F - 15.1 °F 22% 30.16 in 10.0 mi NNE 17.3 mph - N/A   Clear
7:20 PM 54.0 °F - 15.1 °F 22% 30.16 in 10.0 mi NNE 16.1 mph - N/A   Clear
7:29 PM 53.1 °F - 14.0 °F 21% 30.17 in 10.0 mi North 16.1 mph - N/A   Clear
7:31 PM 53.1 °F - 14.0 °F 21% 30.17 in 10.0 mi North 16.1 mph - N/A   Clear
7:33 PM 52.0 °F - 14.0 °F 22% 30.17 in 10.0 mi North 16.1 mph - N/A   Clear
7:35 PM 52.0 °F - 14.0 °F 22% 30.17 in 10.0 mi North 15.0 mph - N/A   Clear
7:44 PM 52.0 °F - 14.0 °F 22% 30.17 in 10.0 mi North 15.0 mph - N/A   Clear
7:46 PM 52.0 °F - 14.0 °F 22% 30.18 in 10.0 mi North 15.0 mph - N/A   Clear
7:48 PM 51.8 °F - 14.0 °F 22% 30.18 in 10.0 mi North 13.8 mph - N/A   Clear
7:50 PM 51.8 °F - 14.0 °F 22% 30.18 in 10.0 mi North 13.8 mph - N/A   Clear
7:52 PM 51.1 °F - 14.0 °F 23% 30.17 in 10.0 mi North 16.1 mph - N/A   Clear
7:59 PM 51.1 °F - 14.0 °F 23% 30.19 in 10.0 mi North 16.1 mph - N/A   Clear
8:01 PM 51.1 °F - 14.0 °F 23% 30.19 in 10.0 mi North 16.1 mph - N/A   Clear
8:03 PM 51.1 °F - 12.9 °F 22% 30.19 in 10.0 mi North 16.1 mph - N/A   Clear
8:05 PM 51.1 °F - 12.9 °F 22% 30.19 in 10.0 mi North 15.0 mph - N/A   Clear
8:14 PM 50.0 °F - 12.9 °F 23% 30.20 in 10.0 mi North 15.0 mph - N/A   Clear
8:16 PM 50.0 °F - 12.9 °F 23% 30.20 in 10.0 mi North 15.0 mph - N/A   Clear
8:18 PM 50.0 °F - 12.9 °F 23% 30.20 in 10.0 mi North 15.0 mph - N/A   Clear
8:20 PM 50.0 °F - 12.2 °F 22% 30.20 in 10.0 mi North 13.8 mph - N/A   Clear
8:29 PM 48.9 °F - 12.9 °F 24% 30.21 in 10.0 mi North 13.8 mph - N/A   Clear
8:31 PM 48.9 °F - 12.0 °F 23% 30.21 in 10.0 mi North 15.0 mph - N/A   Clear
8:33 PM 48.9 °F - 12.0 °F 23% 30.21 in 10.0 mi North 13.8 mph - N/A   Clear
8:35 PM 48.9 °F - 12.0 °F 23% 30.21 in 10.0 mi North 13.8 mph - N/A   Clear
8:44 PM 48.0 °F - 12.0 °F 24% 30.21 in 10.0 mi North 13.8 mph - N/A   Clear
8:46 PM 48.0 °F - 12.0 °F 24% 30.21 in 10.0 mi North 13.8 mph - N/A   Clear
8:48 PM 48.2 °F - 12.2 °F 24% 30.21 in 10.0 mi North 13.8 mph - N/A   Clear
8:50 PM 46.4 °F 40.7 °F 12.2 °F 25% 30.22 in 10.0 mi North 12.7 mph - N/A   Clear
8:52 PM 46.9 °F - 12.0 °F 24% 30.21 in 10.0 mi North 11.5 mph - N/A   Clear
9:01 PM 45.0 °F 39.3 °F 12.0 °F 26% 30.22 in 10.0 mi North 11.5 mph - N/A   Clear
9:03 PM 45.0 °F 39.3 °F 12.0 °F 26% 30.22 in 10.0 mi North 11.5 mph - N/A   Clear
9:05 PM 45.0 °F 39.3 °F 12.0 °F 26% 30.22 in 10.0 mi North 11.5 mph - N/A   Clear
9:17 PM 44.1 °F 38.1 °F 12.9 °F 28% 30.23 in 10.0 mi North 11.5 mph - N/A   Clear
9:52 PM 43.0 °F 36.0 °F 12.0 °F 28% 30.21 in 10.0 mi North 13.8 mph - N/A   Clear
10:52 PM 41.0 °F 34.7 °F 14.0 °F 33% 30.22 in 10.0 mi North 10.4 mph - N/A   Clear
11:52 PM 41.0 °F 33.9 °F 18.0 °F 40% 30.23 in 10.0 mi NNW 12.7 mph - N/A   Clear